Location: Plainartige
(45.6866°N, 1.7993°E)
Time: 11:21:33
(UTC+00:00)

Courier 1B - Visible Passes

Search period start: 28 May 2022 00:00
Search period end: 07 June 2022 00:00
Orbit: 962 x 1209 km, 28.3° (Epoch: 27 May)

Date Brightness Start Highest point End Pass type
(mag) Time Alt. Az. Time Alt. Az. Time Alt. Az.
28 May 9.2 20:53:46 10° SW 20:57:50 16° SSW 21:00:42 13° SSE visible
29 May 9.3 19:59:39 10° SW 20:04:19 18° S 20:08:49 10° SSE visible
30 May 9.5 21:00:47 10° SW 21:03:35 12° SSW 21:06:19 10° S visible
31 May 9.5 20:06:07 10° SW 20:10:04 15° SSW 20:13:56 10° SSE visible
02 Jun 9.7 20:13:44 10° SW 20:15:46 11° SSW 20:17:46 10° S visible
